SCP
0 0 0 0 0 0 0 0 0 0 0 0 0 0 0 0 0 0 0 0 0 -0 -1 -1 -1 -1 -1 -1 -1 -1 -1 -1 -1 -0 -0 -0 -0 0 0 0 0 0 0 0 -0 0 -0 -0 -0
0 0 0 0 0 0 0 0 0 0 0 0 0 0 0 0 0 0 0 0 -0 -0 -0 -0 -0 -0 -1 -1 -1 -1 -1 -1 -1 -0 -0 -0 0 0 0 0 0 0 0 -0 -0 0 -0 0 0
0 0 0 0 0 0 0 0 0 0 0 0 0 0 0 0 0 0 0 0 0 -0 -0 -0 -1 -0 -1 -1 -1 -1 -1 -1 -1 -0 -0 -0 0 0 0 0 0 0 0 0 0 0 0 0 0
0 0 0 0 0 0 0 0 0 0 0 0 0 0 0 0 0 0 0 0 0 0 0 -0 -0 -0 -0 -0 -0 -1 -1 -1 -0 -0 -0 0 0 0 0 0 0 0 0 0 0 -0 0 0 0
0 0 0 0 0 0 0 0 0 0 0 0 0 0 0 0 0 0 1 0 0 0 0 0 0 -0 0 0 0 0 -0 -0 -0 -0 -0 0 0 0 0 0 0 0 0 0 -0 0 0 0 0
0 0 0 0 0 0 0 0 0 0 0 0 0 0 0 0 0 0 0 0 0 0 0 0 0 0 0 0 0 0 0 0 -0 -0 -0 0 0 0 0 0 0 0 0 0 0 0 0 0 0
0 0 0 0 0 0 0 0 0 0 0 0 0 0 0 0 0 0 0 0 0 0 1 0 0 1 0 0 0 0 0 0 -0 0 0 0 0 0 0 0 0 0 0 -0 -0 -0 0 0 0
0 0 0 0 0 0 0 0 0 0 0 0 0 0 0 0 0 0 0 0 0 0 0 1 1 0 0 0 0 0 0 0 -0 -0 -0 -0 -0 0 -0 -0 -0 -0 -0 -0 -0 -0 -0 -0 0
0 0 0 0 0 0 0 0 0 0 0 0 0 0 0 0 -0 0 0 0 0 0 0 1 1 1 0 0 0 0 0 0 0 -0 -0 -0 -0 -0 -0 -0 -0 -0 -0 -0 -0 -0 -0 -0 -0
0 0 0 0 0 0 0 0 0 0 0 0 0 0 0 0 0 0 0 0 0 1 1 1 1 1 1 1 0 0 0 0 0 -0 -0 -0 -0 -0 -0 -0 -0 -0 -0 -0 -0 -0 -0 -0 -0
0 0 0 0 0 0 0 0 0 0 0 0 0 0 0 0 0 0 0 0 0 1 1 1 2 2 1 1 1 1 1 0 0 0 -0 -0 -0 -0 -0 0 0 -0 0 -0 0 0 0 0 -0
0 0 0 0 0 0 0 0 0 0 0 0 0 0 0 0 0 0 0 -0 0 1 1 1 2 2 3 2 1 1 1 1 1 0 0 0 0 -0 0 0 0 0 0 0 0 0 0 0 0
0 0 0 0 0 0 0 0 0 0 0 0 0 0 0 0 0 0 0 0 0 1 1 2 2 4 3 3 2 2 1 2 1 1 0 0 0 0 0 0 0 0 0 0 0 0 0 0 0
0 0 0 0 0 0 0 0 0 0 0 0 0 0 0 0 0 0 0 0 0 1 1 1 2 4 3 3 3 3 3 2 2 2 1 1 1 1 0 0 0 0 0 0 0 0 0 0 0
0 0 0 0 0 0 0 0 0 0 0 0 0 0 0 0 0 0 0 0 1 1 1 2 2 2 3 2 3 3 2 2 2 2 2 2 1 1 0 0 0 0 0 0 0 0 0 0 0
0 0 0 0 0 0 0 0 0 0 0 0 0 0 0 0 0 0 0 0 0 1 2 2 2 2 3 3 4 4 3 2 2 3 3 2 2 1 1 0 0 0 0 0 0 0 0 0 0
0 0 0 0 0 0 0 0 0 0 0 0 0 0 0 0 0 0 0 0 0 1 2 2 3 2 3 3 3 3 4 3 2 2 2 2 2 3 2 1 1 1 0 0 0 0 0 1 1
0 0 0 0 0 0 0 0 0 0 0 0 0 0 0 0 0 0 0 0 0 0 1 3 4 3 4 4 3 2 3 2 2 2 1 2 3 2 3 2 1 1 1 0 0 1 1 1 1
0 0 0 0 0 0 0 0 0 0 0 0 0 0 0 0 0 0 0 0 0 0 1 2 3 4 6 5 4 3 3 5 3 2 1 2 2 4 3 2 2 1 1 1 1 1 1 1 1
0 0 0 0 0 0 0 0 0 0 0 0 0 0 0 0 0 0 0 0 0 0 0 2 4 5 5 5 6 4 3 3 2 2 2 2 2 2 5 4 3 2 2 2 1 1 2 2 2
0 0 0 0 0 0 0 0 0 0 0 0 0 0 0 0 0 0 0 0 0 0 0 1 5 7 6 5 6 6 4 3 2 2 1 2 2 2 2 2 3 2 2 2 3 2 3 6 2
0 0 0 0 0 0 0 -0 0 0 0 0 0 0 0 0 0 0 0 0 0 0 0 1 1 3 4 5 6 5 5 4 2 2 1 2 2 3 2 3 2 3 4 2 5 7 6 4 3
0 0 0 0 0 0 0 0 0 0 0 0 0 0 0 0 0 0 0 0 0 0 0 0 1 2 4 4 5 5 5 5 4 4 3 3 3 3 3 3 3 3 4 2 1 0 0 0 0
0 0 0 0 0 0 0 0 0 0 0 0 0 0 0 0 0 0 0 0 0 0 0 0 1 2 3 4 4 4 5 5 6 5 4 5 5 4 3 2 1 1 1 1 1 0 0 0 0
0 0 0 0 0 0 0 0 0 0 0 0 0 0 0 0 0 0 0 0 0 0 0 0 1 1 2 3 4 4 4 4 4 4 4 5 4 4 4 3 3 2 1 1 1 0 0 0 0
0 0 0 0 0 0 0 0 0 0 0 0 0 0 0 0 0 -0 0 0 0 0 0 0 1 1 2 2 3 3 2 3 3 3 3 3 2 2 2 3 3 3 3 3 2 1 1 0 0
0 0 0 0 0 0 0 0 0 0 0 0 0 0 0 0 0 0 0 -0 0 0 0 0 0 1 1 1 2 2 1 1 1 1 1 1 1 1 2 2 2 2 3 3 3 2 1 1 1
0 0 0 0 0 0 0 0 0 0 0 0 0 0 0 0 0 0 0 0 -0 0 0 0 0 1 1 1 1 1 1 1 1 1 1 1 1 1 1 2 2 2 2 3 3 2 2 2 2
0 0 0 0 0 0 0 0 0 0 0 0 0 0 0 0 0 0 0 0 0 0 0 0 0 0 0 1 1 1 1 0 0 0 0 1 1 0 1 0 0 1 1 2 2 2 1 1 1
0 0 0 0 0 0 0 0 0 0 0 -0 -0 0 0 0 0 0 0 0 0 0 0 0 0 0 0 0 0 0 1 1 1 0 0 0 1 0 0 0 0 0 0 1 1 0 0 0 0
Wind_Speed_500mb
20 22 21 9 6 3 5 6 2 12 2 7 9 2 4 9 4 1 14 43 40 51 53 55 57 57 54 48 43 46 48 55 53 45 37 31 29 35 37 36 35 33 31 28 27 26 25 25 24
21 19 11 4 5 8 7 7 10 9 18 20 2 4 3 2 7 7 13 39 42 52 53 57 57 56 53 48 45 46 49 54 51 44 38 33 34 36 37 37 36 34 31 29 26 24 22 22 21
19 16 7 3 3 8 4 14 2 20 17 19 7 7 3 4 9 3 17 31 38 49 52 55 57 56 53 49 47 46 52 54 50 44 39 37 39 39 39 38 37 35 32 29 26 23 21 19 18
10 5 7 6 14 7 4 8 13 19 9 20 17 3 9 8 5 3 31 28 30 45 49 52 56 56 55 51 49 49 52 53 51 46 42 41 42 43 42 40 37 34 32 28 24 21 18 16 14
7 3 7 6 12 7 6 8 11 16 14 19 21 13 14 5 4 5 23 26 30 50 52 52 55 56 54 52 49 48 51 53 53 49 47 45 44 43 42 41 38 34 30 27 23 20 16 13 11
8 3 11 19 19 9 4 9 16 13 13 25 16 30 5 7 2 3 12 17 29 51 54 55 53 55 54 52 48 46 49 52 54 52 50 47 46 44 42 39 37 34 30 26 22 19 15 12 9
11 7 17 17 15 14 5 4 2 2 13 9 23 18 13 23 27 16 17 22 28 46 50 54 56 56 55 52 48 45 48 52 55 54 51 50 48 45 43 40 37 33 29 26 22 17 14 9 7
10 6 10 10 17 18 9 8 7 10 14 15 10 3 15 40 47 25 27 30 36 46 49 52 58 60 59 56 52 47 49 52 56 56 53 50 49 48 44 41 38 34 30 25 21 16 12 9 8
13 10 15 17 14 8 4 6 12 13 24 22 13 26 30 37 43 27 38 39 44 52 53 56 59 62 63 61 56 51 50 53 57 58 56 52 52 50 47 43 38 34 29 25 21 18 14 11 10
11 10 15 7 12 13 21 22 28 16 25 32 35 36 35 32 39 29 42 47 51 56 58 60 60 64 65 65 62 59 56 58 62 63 62 60 59 55 51 45 39 34 29 25 22 19 16 14 13
9 11 9 13 19 19 22 26 29 28 33 31 30 41 39 43 34 39 43 51 47 51 59 63 65 66 69 71 70 67 66 66 67 67 65 63 60 58 53 48 43 38 34 29 24 20 17 16 16
8 12 16 11 20 21 23 29 25 33 41 45 43 47 51 48 45 36 41 50 58 58 60 65 66 69 72 74 74 73 72 72 72 72 69 68 63 59 56 51 48 41 36 30 25 21 18 18 18
9 6 10 17 18 24 32 33 30 30 32 35 39 42 46 45 45 41 47 51 60 62 62 68 68 72 68 73 75 76 77 76 73 73 72 71 66 62 57 53 47 43 38 33 27 22 18 15 16
13 5 6 12 18 19 25 37 11 14 32 32 35 39 40 43 45 47 47 54 66 64 64 66 71 72 69 71 73 76 78 79 76 76 75 73 67 62 59 55 50 46 40 33 28 25 23 19 18
5 6 7 17 10 11 13 29 20 31 18 21 33 40 41 43 32 31 42 48 61 55 57 62 62 67 71 72 74 77 81 83 82 84 79 75 69 65 61 57 52 48 41 36 32 30 30 26 22
2 2 6 3 7 6 8 29 24 10 17 34 32 35 38 43 47 43 40 44 64 63 71 65 61 67 66 68 73 79 82 85 87 84 81 78 74 68 64 62 59 51 46 42 39 34 33 29 28
6 3 3 11 7 11 9 19 16 46 47 39 32 29 35 40 43 48 49 48 52 76 77 71 69 66 66 70 75 77 81 83 84 86 85 80 75 75 70 66 61 55 51 49 45 41 40 36 33
7 5 5 14 10 17 31 33 29 44 42 39 34 33 42 47 51 51 51 52 59 60 81 78 75 70 69 72 76 80 84 83 83 84 80 77 77 75 73 70 65 58 54 54 52 49 45 40 35
7 9 14 20 25 11 27 31 27 37 34 36 38 39 33 46 52 51 57 59 64 72 82 90 85 74 74 77 76 79 78 77 80 81 73 68 67 63 63 70 67 64 62 63 57 51 46 39 31
11 14 19 19 21 11 30 37 33 26 28 38 40 42 46 35 51 42 47 57 60 67 77 92 97 88 84 84 81 77 75 77 73 72 80 70 59 73 81 76 69 66 67 67 61 51 46 40 28
16 15 18 23 17 22 33 44 29 19 30 37 38 41 46 57 59 50 47 46 46 57 66 92 102 99 92 89 83 76 72 68 63 61 69 68 67 72 75 66 60 50 54 61 64 52 49 38 31
21 11 15 13 18 24 22 35 33 34 38 30 41 43 43 47 50 51 51 51 40 43 59 80 97 100 96 88 83 74 71 69 67 54 56 62 68 69 70 63 57 45 39 41 49 53 39 34 34
16 2 11 17 25 22 28 34 30 26 32 39 34 54 58 41 41 46 47 48 46 42 39 60 78 85 91 83 76 68 65 63 54 48 51 57 61 60 60 61 60 54 36 48 64 59 55 32 27
5 12 15 6 15 28 35 30 32 34 32 26 30 38 30 33 33 40 49 55 58 51 44 44 61 68 71 74 72 71 67 60 53 55 60 59 63 66 66 67 66 64 82 80 77 67 79 92 91
2 6 15 18 20 30 10 29 36 47 45 31 24 20 22 26 30 34 42 51 61 59 56 49 55 65 68 68 70 71 69 61 61 60 61 65 69 73 71 72 70 64 60 60 85 91 79 59 82
3 4 9 21 26 37 30 20 15 22 22 12 15 21 26 30 30 38 52 56 55 57 55 58 60 65 71 72 71 67 60 54 49 47 48 49 50 53 59 67 68 59 61 72 69 67 60 65 75
8 8 3 9 17 18 13 24 35 4 19 26 28 32 32 32 31 32 38 56 55 48 43 56 63 71 76 74 63 52 45 42 40 38 38 40 44 50 50 50 50 55 60 57 54 55 58 65 69
4 14 5 3 8 12 16 23 14 19 22 26 29 34 37 40 40 34 40 43 51 48 37 36 50 58 69 56 50 45 37 30 27 26 26 29 34 41 46 45 43 42 42 46 46 48 50 51 52
6 8 5 1 5 9 16 11 7 15 13 20 25 26 34 35 39 41 41 36 34 37 38 23 26 50 61 59 49 40 36 34 29 26 27 31 34 36 36 36 34 33 33 33 32 31 29 28 27
12 15 20 10 11 12 14 31 20 12 11 29 27 27 29 33 35 37 38 35 33 29 24 31 15 30 39 46 47 47 46 37 33 33 32 33 36 36 35 34 30 28 26 21 16 14 14 17 20
Wind_Direction_500mb
315 332 335 333 233 249 161 154 278 19 316 335 281 140 25 313 266 326 309 175 178 179 175 177 176 178 178 177 178 173 173 171 169 167 171 172 163 155 148 146 149 151 149 149 148 144 137 130 126
311 329 345 42 237 213 176 141 174 359 333 331 28 183 252 324 325 309 129 169 173 180 177 179 179 180 180 180 180 176 175 171 172 174 178 173 166 158 153 152 153 152 152 152 150 142 137 133 130
308 322 335 71 179 212 195 102 15 303 342 40 25 10 314 327 327 270 163 160 176 183 182 182 182 182 183 184 183 183 180 179 181 184 183 174 168 163 160 158 157 157 156 156 150 146 141 139 137
277 324 63 232 224 244 241 89 358 351 322 40 3 354 312 317 314 298 169 168 178 183 187 187 186 187 187 188 190 190 190 190 190 190 186 178 172 168 164 163 163 163 160 158 153 147 142 140 139
233 199 224 220 240 265 251 312 360 345 346 9 17 2 308 330 58 135 173 181 186 183 188 191 190 192 192 193 194 195 195 195 195 194 186 181 177 174 170 168 168 167 165 161 154 148 146 142 140
165 160 224 228 233 240 294 312 321 317 341 347 9 331 280 327 313 139 189 201 191 185 189 192 193 196 197 198 199 201 199 197 195 195 188 183 180 178 177 176 174 172 170 165 159 156 153 152 148
182 185 234 249 239 270 258 289 297 339 335 345 343 330 316 13 333 240 198 198 196 192 193 194 196 198 200 203 204 205 205 202 198 196 193 186 184 183 184 182 181 180 177 170 168 165 162 167 172
155 208 174 222 228 251 271 260 321 331 302 321 342 250 322 333 326 273 215 201 197 197 201 201 200 200 201 204 207 209 208 208 203 199 196 192 189 189 190 190 188 186 183 178 174 174 178 188 206
154 208 221 220 210 217 285 298 296 304 287 291 272 285 301 319 327 264 231 207 199 201 205 206 207 205 205 206 207 210 210 208 204 200 198 198 197 195 196 197 195 194 190 186 184 185 190 203 224
189 218 216 207 230 251 274 287 293 288 282 285 291 283 294 309 321 263 246 220 204 206 208 210 212 211 208 208 208 208 207 206 203 202 201 201 201 200 201 200 201 200 199 198 198 199 203 214 226
160 226 196 218 233 258 269 272 269 275 274 267 269 289 291 295 291 291 251 231 225 217 215 214 216 214 212 208 208 208 207 206 204 205 205 207 205 206 205 203 205 207 207 208 210 217 221 234 242
183 223 219 270 250 262 264 277 269 261 267 276 272 281 286 285 286 278 258 252 231 229 229 222 221 220 217 213 211 211 210 209 207 208 209 209 210 211 211 209 209 211 214 218 222 230 243 248 241
194 229 208 251 262 254 265 261 261 273 267 276 280 272 276 274 273 272 261 265 249 239 235 231 228 228 224 219 217 215 215 214 213 213 213 213 213 215 215 217 218 219 220 224 230 241 242 237 232
161 211 251 273 262 255 258 267 248 265 291 280 284 285 284 279 271 272 264 254 252 242 236 234 231 231 230 225 224 224 220 220 217 217 219 219 217 219 223 225 224 225 230 233 240 245 242 243 245
144 262 270 234 271 260 261 273 240 271 285 292 296 289 287 289 285 281 277 252 240 238 245 235 229 230 229 227 225 227 226 224 223 222 221 224 222 222 225 230 233 234 233 241 245 247 251 252 253
107 62 292 12 307 271 220 271 297 292 304 305 298 288 284 278 284 284 280 271 239 239 245 235 229 226 227 228 228 227 228 228 229 229 227 226 226 227 228 231 233 235 243 242 242 245 253 255 264
35 239 325 312 241 288 239 294 299 300 299 297 293 289 294 294 292 280 274 266 265 247 241 235 229 223 222 225 227 230 231 232 233 233 233 229 227 231 231 235 238 238 240 248 252 252 255 259 266
167 246 230 280 281 287 285 287 287 290 289 289 285 280 289 289 291 297 291 274 255 254 242 236 229 226 225 227 226 229 231 233 234 236 234 233 236 233 233 235 240 244 247 249 250 254 257 260 264
226 237 267 274 278 273 278 288 289 290 292 285 288 288 281 289 298 293 291 284 263 240 241 239 232 223 224 223 225 229 234 238 236 239 235 234 223 234 246 247 244 245 246 247 249 253 254 260 262
226 268 283 280 264 238 289 287 295 270 272 273 273 283 293 290 297 293 297 285 265 243 236 235 233 227 227 229 227 229 232 236 239 240 242 245 231 235 228 241 245 251 252 250 250 253 252 249 248
247 257 276 289 303 278 286 286 279 266 259 261 266 268 273 282 285 283 296 307 280 253 239 233 229 229 229 232 229 228 232 238 239 231 232 233 230 229 226 229 237 239 249 248 243 244 246 237 246
270 209 263 275 307 302 345 295 289 294 285 274 268 263 264 271 275 283 287 288 299 285 257 233 230 231 232 234 231 231 233 235 237 231 224 224 231 234 239 249 242 235 244 249 234 221 226 232 255
281 173 264 281 284 293 281 276 289 278 275 284 280 277 279 279 281 283 281 279 278 283 275 249 233 230 231 232 231 231 232 237 233 229 229 227 234 236 240 244 241 240 248 270 264 243 213 235 273
15 290 283 269 278 263 278 267 293 297 299 298 286 286 296 298 300 298 298 294 285 278 273 255 236 228 227 226 227 231 235 235 230 228 223 234 233 237 242 247 250 259 254 264 269 258 254 253 259
183 306 288 271 261 276 331 300 279 297 302 300 309 324 343 339 338 334 326 312 291 279 270 259 239 230 224 225 227 229 230 228 230 232 232 231 235 236 241 245 251 252 245 230 245 245 254 234 232
145 251 263 291 293 298 304 264 280 346 14 9 3 356 340 1 14 13 4 344 323 286 264 248 244 236 231 226 224 225 222 217 216 216 220 225 230 236 242 245 245 240 237 238 246 251 254 237 238
150 228 76 289 276 285 270 282 282 345 10 3 2 4 1 337 327 344 355 4 348 336 277 242 238 237 231 223 214 206 207 210 212 217 222 227 232 237 238 236 236 238 235 231 231 232 231 230 237
247 142 214 167 282 277 291 288 285 327 339 343 353 355 350 356 341 324 332 337 355 353 337 274 245 237 222 207 201 203 206 206 206 211 216 221 221 223 225 223 219 215 215 216 218 223 228 229 233
179 202 158 195 245 273 295 286 265 292 309 330 338 345 350 351 350 349 340 328 335 351 0 332 247 210 196 196 198 198 191 193 196 204 210 212 210 211 210 209 206 202 201 201 200 203 210 216 226
239 240 225 225 216 237 284 280 269 245 308 331 325 330 337 339 346 341 339 345 347 340 334 353 290 242 217 210 203 201 201 194 196 201 203 207 206 206 206 204 202 197 185 177 177 191 216 235 248
Wind_Speed_850mb
20 22 21 9 6 3 5 6 2 12 2 7 9 2 4 9 4 1 14 43 40 51 53 55 57 57 54 48 43 46 48 55 53 45 37 31 29 35 37 36 35 33 31 28 27 26 25 25 24
21 19 11 4 5 8 7 7 10 9 18 20 2 4 3 2 7 7 13 39 42 52 53 57 57 56 53 48 45 46 49 54 51 44 38 33 34 36 37 37 36 34 31 29 26 24 22 22 21
19 16 7 3 3 8 4 14 2 20 17 19 7 7 3 4 9 3 17 31 38 49 52 55 57 56 53 49 47 46 52 54 50 44 39 37 39 39 39 38 37 35 32 29 26 23 21 19 18
10 5 7 6 14 7 4 8 13 19 9 20 17 3 9 8 5 3 31 28 30 45 49 52 56 56 55 51 49 49 52 53 51 46 42 41 42 43 42 40 37 34 32 28 24 21 18 16 14
7 3 7 6 12 7 6 8 11 16 14 19 21 13 14 5 4 5 23 26 30 50 52 52 55 56 54 52 49 48 51 53 53 49 47 45 44 43 42 41 38 34 30 27 23 20 16 13 11
8 3 11 19 19 9 4 9 16 13 13 25 16 30 5 7 2 3 12 17 29 51 54 55 53 55 54 52 48 46 49 52 54 52 50 47 46 44 42 39 37 34 30 26 22 19 15 12 9
11 7 17 17 15 14 5 4 2 2 13 9 23 18 13 23 27 16 17 22 28 46 50 54 56 56 55 52 48 45 48 52 55 54 51 50 48 45 43 40 37 33 29 26 22 17 14 9 7
10 6 10 10 17 18 9 8 7 10 14 15 10 3 15 40 47 25 27 30 36 46 49 52 58 60 59 56 52 47 49 52 56 56 53 50 49 48 44 41 38 34 30 25 21 16 12 9 8
13 10 15 17 14 8 4 6 12 13 24 22 13 26 30 37 43 27 38 39 44 52 53 56 59 62 63 61 56 51 50 53 57 58 56 52 52 50 47 43 38 34 29 25 21 18 14 11 10
11 10 15 7 12 13 21 22 28 16 25 32 35 36 35 32 39 29 42 47 51 56 58 60 60 64 65 65 62 59 56 58 62 63 62 60 59 55 51 45 39 34 29 25 22 19 16 14 13
9 11 9 13 19 19 22 26 29 28 33 31 30 41 39 43 34 39 43 51 47 51 59 63 65 66 69 71 70 67 66 66 67 67 65 63 60 58 53 48 43 38 34 29 24 20 17 16 16
8 12 16 11 20 21 23 29 25 33 41 45 43 47 51 48 45 36 41 50 58 58 60 65 66 69 72 74 74 73 72 72 72 72 69 68 63 59 56 51 48 41 36 30 25 21 18 18 18
9 6 10 17 18 24 32 33 30 30 32 35 39 42 46 45 45 41 47 51 60 62 62 68 68 72 68 73 75 76 77 76 73 73 72 71 66 62 57 53 47 43 38 33 27 22 18 15 16
13 5 6 12 18 19 25 37 11 14 32 32 35 39 40 43 45 47 47 54 66 64 64 66 71 72 69 71 73 76 78 79 76 76 75 73 67 62 59 55 50 46 40 33 28 25 23 19 18
5 6 7 17 10 11 13 29 20 31 18 21 33 40 41 43 32 31 42 48 61 55 57 62 62 67 71 72 74 77 81 83 82 84 79 75 69 65 61 57 52 48 41 36 32 30 30 26 22
2 2 6 3 7 6 8 29 24 10 17 34 32 35 38 43 47 43 40 44 64 63 71 65 61 67 66 68 73 79 82 85 87 84 81 78 74 68 64 62 59 51 46 42 39 34 33 29 28
6 3 3 11 7 11 9 19 16 46 47 39 32 29 35 40 43 48 49 48 52 76 77 71 69 66 66 70 75 77 81 83 84 86 85 80 75 75 70 66 61 55 51 49 45 41 40 36 33
7 5 5 14 10 17 31 33 29 44 42 39 34 33 42 47 51 51 51 52 59 60 81 78 75 70 69 72 76 80 84 83 83 84 80 77 77 75 73 70 65 58 54 54 52 49 45 40 35
7 9 14 20 25 11 27 31 27 37 34 36 38 39 33 46 52 51 57 59 64 72 82 90 85 74 74 77 76 79 78 77 80 81 73 68 67 63 63 70 67 64 62 63 57 51 46 39 31
11 14 19 19 21 11 30 37 33 26 28 38 40 42 46 35 51 42 47 57 60 67 77 92 97 88 84 84 81 77 75 77 73 72 80 70 59 73 81 76 69 66 67 67 61 51 46 40 28
16 15 18 23 17 22 33 44 29 19 30 37 38 41 46 57 59 50 47 46 46 57 66 92 102 99 92 89 83 76 72 68 63 61 69 68 67 72 75 66 60 50 54 61 64 52 49 38 31
21 11 15 13 18 24 22 35 33 34 38 30 41 43 43 47 50 51 51 51 40 43 59 80 97 100 96 88 83 74 71 69 67 54 56 62 68 69 70 63 57 45 39 41 49 53 39 34 34
16 2 11 17 25 22 28 34 30 26 32 39 34 54 58 41 41 46 47 48 46 42 39 60 78 85 91 83 76 68 65 63 54 48 51 57 61 60 60 61 60 54 36 48 64 59 55 32 27
5 12 15 6 15 28 35 30 32 34 32 26 30 38 30 33 33 40 49 55 58 51 44 44 61 68 71 74 72 71 67 60 53 55 60 59 63 66 66 67 66 64 82 80 77 67 79 92 91
2 6 15 18 20 30 10 29 36 47 45 31 24 20 22 26 30 34 42 51 61 59 56 49 55 65 68 68 70 71 69 61 61 60 61 65 69 73 71 72 70 64 60 60 85 91 79 59 82
3 4 9 21 26 37 30 20 15 22 22 12 15 21 26 30 30 38 52 56 55 57 55 58 60 65 71 72 71 67 60 54 49 47 48 49 50 53 59 67 68 59 61 72 69 67 60 65 75
8 8 3 9 17 18 13 24 35 4 19 26 28 32 32 32 31 32 38 56 55 48 43 56 63 71 76 74 63 52 45 42 40 38 38 40 44 50 50 50 50 55 60 57 54 55 58 65 69
4 14 5 3 8 12 16 23 14 19 22 26 29 34 37 40 40 34 40 43 51 48 37 36 50 58 69 56 50 45 37 30 27 26 26 29 34 41 46 45 43 42 42 46 46 48 50 51 52
6 8 5 1 5 9 16 11 7 15 13 20 25 26 34 35 39 41 41 36 34 37 38 23 26 50 61 59 49 40 36 34 29 26 27 31 34 36 36 36 34 33 33 33 32 31 29 28 27
12 15 20 10 11 12 14 31 20 12 11 29 27 27 29 33 35 37 38 35 33 29 24 31 15 30 39 46 47 47 46 37 33 33 32 33 36 36 35 34 30 28 26 21 16 14 14 17 20
Wind_Direction_850mb
315 332 335 333 233 249 161 154 278 19 316 335 281 140 25 313 266 326 309 175 178 179 175 177 176 178 178 177 178 173 173 171 169 167 171 172 163 155 148 146 149 151 149 149 148 144 137 130 126
311 329 345 42 237 213 176 141 174 359 333 331 28 183 252 324 325 309 129 169 173 180 177 179 179 180 180 180 180 176 175 171 172 174 178 173 166 158 153 152 153 152 152 152 150 142 137 133 130
308 322 335 71 179 212 195 102 15 303 342 40 25 10 314 327 327 270 163 160 176 183 182 182 182 182 183 184 183 183 180 179 181 184 183 174 168 163 160 158 157 157 156 156 150 146 141 139 137
277 324 63 232 224 244 241 89 358 351 322 40 3 354 312 317 314 298 169 168 178 183 187 187 186 187 187 188 190 190 190 190 190 190 186 178 172 168 164 163 163 163 160 158 153 147 142 140 139
233 199 224 220 240 265 251 312 360 345 346 9 17 2 308 330 58 135 173 181 186 183 188 191 190 192 192 193 194 195 195 195 195 194 186 181 177 174 170 168 168 167 165 161 154 148 146 142 140
165 160 224 228 233 240 294 312 321 317 341 347 9 331 280 327 313 139 189 201 191 185 189 192 193 196 197 198 199 201 199 197 195 195 188 183 180 178 177 176 174 172 170 165 159 156 153 152 148
182 185 234 249 239 270 258 289 297 339 335 345 343 330 316 13 333 240 198 198 196 192 193 194 196 198 200 203 204 205 205 202 198 196 193 186 184 183 184 182 181 180 177 170 168 165 162 167 172
155 208 174 222 228 251 271 260 321 331 302 321 342 250 322 333 326 273 215 201 197 197 201 201 200 200 201 204 207 209 208 208 203 199 196 192 189 189 190 190 188 186 183 178 174 174 178 188 206
154 208 221 220 210 217 285 298 296 304 287 291 272 285 301 319 327 264 231 207 199 201 205 206 207 205 205 206 207 210 210 208 204 200 198 198 197 195 196 197 195 194 190 186 184 185 190 203 224
189 218 216 207 230 251 274 287 293 288 282 285 291 283 294 309 321 263 246 220 204 206 208 210 212 211 208 208 208 208 207 206 203 202 201 201 201 200 201 200 201 200 199 198 198 199 203 214 226
160 226 196 218 233 258 269 272 269 275 274 267 269 289 291 295 291 291 251 231 225 217 215 214 216 214 212 208 208 208 207 206 204 205 205 207 205 206 205 203 205 207 207 208 210 217 221 234 242
183 223 219 270 250 262 264 277 269 261 267 276 272 281 286 285 286 278 258 252 231 229 229 222 221 220 217 213 211 211 210 209 207 208 209 209 210 211 211 209 209 211 214 218 222 230 243 248 241
194 229 208 251 262 254 265 261 261 273 267 276 280 272 276 274 273 272 261 265 249 239 235 231 228 228 224 219 217 215 215 214 213 213 213 213 213 215 215 217 218 219 220 224 230 241 242 237 232
161 211 251 273 262 255 258 267 248 265 291 280 284 285 284 279 271 272 264 254 252 242 236 234 231 231 230 225 224 224 220 220 217 217 219 219 217 219 223 225 224 225 230 233 240 245 242 243 245
144 262 270 234 271 260 261 273 240 271 285 292 296 289 287 289 285 281 277 252 240 238 245 235 229 230 229 227 225 227 226 224 223 222 221 224 222 222 225 230 233 234 233 241 245 247 251 252 253
107 62 292 12 307 271 220 271 297 292 304 305 298 288 284 278 284 284 280 271 239 239 245 235 229 226 227 228 228 227 228 228 229 229 227 226 226 227 228 231 233 235 243 242 242 245 253 255 264
35 239 325 312 241 288 239 294 299 300 299 297 293 289 294 294 292 280 274 266 265 247 241 235 229 223 222 225 227 230 231 232 233 233 233 229 227 231 231 235 238 238 240 248 252 252 255 259 266
167 246 230 280 281 287 285 287 287 290 289 289 285 280 289 289 291 297 291 274 255 254 242 236 229 226 225 227 226 229 231 233 234 236 234 233 236 233 233 235 240 244 247 249 250 254 257 260 264
226 237 267 274 278 273 278 288 289 290 292 285 288 288 281 289 298 293 291 284 263 240 241 239 232 223 224 223 225 229 234 238 236 239 235 234 223 234 246 247 244 245 246 247 249 253 254 260 262
226 268 283 280 264 238 289 287 295 270 272 273 273 283 293 290 297 293 297 285 265 243 236 235 233 227 227 229 227 229 232 236 239 240 242 245 231 235 228 241 245 251 252 250 250 253 252 249 248
247 257 276 289 303 278 286 286 279 266 259 261 266 268 273 282 285 283 296 307 280 253 239 233 229 229 229 232 229 228 232 238 239 231 232 233 230 229 226 229 237 239 249 248 243 244 246 237 246
270 209 263 275 307 302 345 295 289 294 285 274 268 263 264 271 275 283 287 288 299 285 257 233 230 231 232 234 231 231 233 235 237 231 224 224 231 234 239 249 242 235 244 249 234 221 226 232 255
281 173 264 281 284 293 281 276 289 278 275 284 280 277 279 279 281 283 281 279 278 283 275 249 233 230 231 232 231 231 232 237 233 229 229 227 234 236 240 244 241 240 248 270 264 243 213 235 273
15 290 283 269 278 263 278 267 293 297 299 298 286 286 296 298 300 298 298 294 285 278 273 255 236 228 227 226 227 231 235 235 230 228 223 234 233 237 242 247 250 259 254 264 269 258 254 253 259
183 306 288 271 261 276 331 300 279 297 302 300 309 324 343 339 338 334 326 312 291 279 270 259 239 230 224 225 227 229 230 228 230 232 232 231 235 236 241 245 251 252 245 230 245 245 254 234 232
145 251 263 291 293 298 304 264 280 346 14 9 3 356 340 1 14 13 4 344 323 286 264 248 244 236 231 226 224 225 222 217 216 216 220 225 230 236 242 245 245 240 237 238 246 251 254 237 238
150 228 76 289 276 285 270 282 282 345 10 3 2 4 1 337 327 344 355 4 348 336 277 242 238 237 231 223 214 206 207 210 212 217 222 227 232 237 238 236 236 238 235 231 231 232 231 230 237
247 142 214 167 282 277 291 288 285 327 339 343 353 355 350 356 341 324 332 337 355 353 337 274 245 237 222 207 201 203 206 206 206 211 216 221 221 223 225 223 219 215 215 216 218 223 228 229 233
179 202 158 195 245 273 295 286 265 292 309 330 338 345 350 351 350 349 340 328 335 351 0 332 247 210 196 196 198 198 191 193 196 204 210 212 210 211 210 209 206 202 201 201 200 203 210 216 226
239 240 225 225 216 237 284 280 269 245 308 331 325 330 337 339 346 341 339 345 347 340 334 353 290 242 217 210 203 201 201 194 196 201 203 207 206 206 206 204 202 197 185 177 177 191 216 235 248